Content
SEND FEEDBACK

Daily
Averages
Monthly
Summary
United States of America

RAPID CITY, SOUTH DAKOTA


Home > North America > United States > South Dakota
Elevation: 3162 feet     Latitude: 44 03N     Longitude: 103 04W

WEATHER
 
SELECT A DAY
Number of Records: 200,436;   Date Range: 1/1/95 - 8/30/14
 
SHARE

PRINT THIS DATA

[ ← Previous Day ]
WEATHER ALMANAC - MARCH 25, 2013
[ Next Day → ]
[ °C ]   °F
Weather ElementAverageHighLow
Temperature16.1 °F30 °F (4:52 pm)3 °F (7:52 am)
Dewpoint7.8 °F12.9 °F (8:52 pm)-2 °F (6:52 am)
Humidity71.5 %87 % (5:52 am)41 % (4:52 pm)
Barometer30.41 in30.49 in (7:52 am)30.26 in (4:18 am)
Wind Speed5.4 mph13.8 mph (1:52 am)
Weather ElementAverage
Visibility10 mi
Wind DirectionSSE (158.5 °)

Weather ElementTotal
Precipitation---
Heating Degree Days48.5 (Base 65)
Averaged from 26 records on March 25, 2013
WEATHER CONDITIONS BREAKOUT
WIND DIRECTION BREAKOUT
WEATHER BY HOUR - MARCH 25, 2013
[ °C ]   °F
Local TimeTemperatureDewpointHumidityBarometerVisibilityWind DirectionWind SpeedGust SpeedPrecipitationEventsConditions
1:52 AM12.0 °F6.1 °F77 %30.44 in10.0 miNorth (350°)13.8 mph0.00 inMostly Cloudy
2:04 AM10.4 °F6.8 °F85 %30.27 in10.0 miNorth (350°)13.8 mphScattered Clouds
2:52 AM12.9 °F8.1 °F81 %30.44 in10.0 miNNW (330°)12.7 mphMostly Cloudy
3:12 AM12.2 °F8.6 °F85 %30.27 in10.0 miNW (320°)10.4 mphOvercast
3:52 AM12.9 °F8.1 °F81 %30.44 in10.0 miNNW (330°)10.4 mph0.00 inOvercast
4:18 AM8.6 °F5.0 °F85 %30.26 in10.0 miNW (320°)12.7 mphScattered Clouds
4:52 AM8.1 °F3.9 °F83 %30.45 in10.0 miNW (320°)10.4 mphClear
5:52 AM6.1 °F3.0 °F87 %30.47 in10.0 miNW (310°)6.9 mphClear
6:52 AM3.9 °F-2.0 °F76 %30.48 in10.0 miNW (310°)5.8 mphClear
7:52 AM3.0 °F-2.0 °F80 %30.49 in10.0 miCalmClear
8:52 AM10.0 °F3.0 °F73 %30.48 in10.0 miCalmClear
9:52 AM12.0 °F5.0 °F73 %30.48 in10.0 miCalmClear
10:52 AM15.1 °F6.1 °F68 %30.48 in10.0 miCalmClear
11:52 AM19.0 °F9.0 °F65 %30.46 in10.0 miCalmClear
12:52 PM21.9 °F10.0 °F60 %30.44 in10.0 miCalmClear
1:52 PM25.0 °F12.0 °F58 %30.42 in10.0 miEast (100°)3.5 mphClear
2:52 PM26.1 °F12.0 °F55 %30.40 in10.0 miCalmClear
3:52 PM28.0 °F10.9 °F49 %30.38 in10.0 miCalmClear
4:52 PM30.0 °F9.0 °F41 %30.38 in10.0 miCalmClear
5:52 PM28.0 °F10.0 °F47 %30.38 in10.0 miSSE (160°)3.5 mphClear
6:52 PM25.0 °F12.0 °F58 %30.39 in10.0 miSSE (160°)3.5 mphClear
7:52 PM21.0 °F12.0 °F68 %30.40 in10.0 miSSE (150°)3.5 mphClear
8:52 PM18.0 °F12.9 °F81 %30.39 in10.0 miSE (130°)4.6 mphClear
9:52 PM16.0 °F12.0 °F84 %30.38 in10.0 miSSE (150°)6.9 mphClear
10:52 PM15.1 °F10.9 °F84 %30.36 in10.0 miSSE (150°)5.8 mphClear
11:52 PM18.0 °F10.9 °F74 %30.32 in10.0 miSouth (180°)11.5 mphClear
Hourly data recorded from KRAP, located miles away from Rapid City, South Dakota







STORIES FROM OUR PARTNERS